Location: Shepherdstown, WV
(39.4326°N, 77.8042°W)
Time: 05:17:51
(UTC-04:00)

Vanguard 3 - Pass Details

Date: 07 August 2021
Orbit: 510 x 3260 km, 33.3° (Epoch: 21 September)

Event Time Altitude Azimuth Distance (km) Brightness Sun altitude
Rises 01:10:15 0° 278° (W) 7,077 12.1 -34.2°
Reaches altitude 10° 01:17:13 10° 264° (W) 6,189 11.5 -34.2°
Enters shadow 01:26:39 18° 235° (SW) 5,408 11.0 -34.2°
Maximum altitude 01:28:32 19° 228° (SW) 5,336 - -34.2°
Drops below altitude 10° 01:38:57 10° 192° (SSW) 5,566 - -34.0°
Sets 01:44:49 0° 175° (S) 6,146 - -33.8°
